Regional Weather Roundup
Issued by NWS New Orleans/Baton Rouge, LA

Home | Current Version | Previous Version | Graphics & Text | Print | Product List | Glossary On
Versions: 1 2 3 4 5 6 7 8 9 10 11 12 13 14 15 16 17 18 19 20 21 22 23 24 25 26 27 28 29 30 31 32 33 34 35 36 37 38 39 40 41 42 43 44 45 46 47 48 49 50
273
ASUS44 KLIX 281211
RWRLIX
NEW ORLEANS REGIONAL WEATHER ROUNDUP
NATIONAL WEATHER SERVICE NEW ORLEANS LA
700 AM CDT SAT MAR 28 2015

NOTE: "FAIR" INDICATES FEW OR NO CLOUDS BELOW 12,000 FEET WITH NO
      SIGNIFICANT WEATHER AND/OR OBSTRUCTIONS TO VISIBILITY.
      SKY/WX - SKY CONDITION AND SIGNIFICANT WEATHER.
      TMP - AIR TEMPERATURE.     DP    - DEWPOINT TEMPERATURE.
      RH  - RELATIVE HUMIDITY.   PRES  - PRESSURE.
      HI  - HEAT INDEX.          WCI   - WIND CHILL INDEX.

*  THESE STATIONS ARE NOT NWS OR FAA STATIONS AND ARE NOT UNDER
   NWS QUALITY CONTROL.

LAZ038-040-048-061>063-065>067-069-281300-
SOUTHEAST LOUISIANA

CITY           SKY/WX    TMP DP  RH WIND       PRES   REMARKS
N.O. AUDUBON     N/A    N/A N/A N/A MISG        N/A
6HR MIN TEMP:  52; 6HR MAX TEMP:  55;

N.O. INTL ARPT PTCLDY    50  37  61 E6        30.21R
6HR MIN TEMP:  50; 6HR MAX TEMP:  57;

N.O. LAKEFRONT CLEAR     53  38  56 E15       30.22R
6HR MIN TEMP:  53; 6HR MAX TEMP:  59;

SLIDELL        CLEAR     40  39  97 CALM      30.20R
6HR MIN TEMP:  40; 6HR MAX TEMP:  49;

BATON ROUGE    CLEAR     43  39  86 CALM      30.21R
6HR MIN TEMP:  43; 6HR MAX TEMP:  50;

BOOTHVILLE     CLEAR     54  47  77 NE6       30.20R
6HR MIN TEMP:  54; 6HR MAX TEMP:  58;

BELLE CHASSE   PTCLDY    47  37  68 NE7       30.20R
6HR MIN TEMP:  43; 6HR MAX TEMP:  51;

BOGALUSA*        N/A     39  37  90 CALM      30.23R
6HR MIN TEMP:  39; 6HR MAX TEMP:  47;

GALLIANO*      SUNNY     54  44  68 MISG      30.21R
6HR MIN TEMP:  53; 6HR MAX TEMP:  59;

NEW ROADS*       N/A     45  38  76 E3        30.22R
6HR MIN TEMP:  45; 6HR MAX TEMP:  51;

GONZALES*        N/A     44  40  88 CALM      30.22R
6HR MIN TEMP:  44; 6HR MAX TEMP:  53;

HAMMOND*       CLEAR     43  37  81 CALM      30.24R
HOUMA*         CLEAR     46  41  81 N3        30.20R
PORT FOURCHON* SUNNY     57  46  67 NE9       30.22R

$$

MSZ070-080>082-281300-
SOUTHERN MISSISSIPPI

CITY           SKY/WX    TMP DP  RH WIND       PRES   REMARKS
MCCOMB         CLEAR     39  36  89 CALM      30.21R
6HR MIN TEMP:  39; 6HR MAX TEMP:  48;

GULFPORT       CLEAR     44  37  76 N5        30.22R
6HR MIN TEMP:  43; 6HR MAX TEMP:  52;

BILOXI         CLEAR     44  38  79 NE6       30.21R
6HR MIN TEMP:  44; 6HR MAX TEMP:  52;

PASCAGOULA     CLEAR     38  37  97 CALM      30.23R
6HR MIN TEMP:  38; 6HR MAX TEMP:  48;

STENNIS ARPT*  CLEAR     43  36  75 CALM      30.22

$$

COASTAL OBSERVATIONS
LAKE AND NEARSHORE STATIONS

STATION/POSITION TIME  TEMP    WIND        PRES    WAVE
                       AIR SEA DIR/SP/G            HT/PER
                 (UTC) (F)     (DEG/KT/KT) (MB)    (FT/S)
PASCAGOULA       1100   45      10/  5/  5 1022.4
WAVELAND YACHT   1100           40/ 11/ 13 1022.5
GRAND ISLE       1100   57 67   60/  9/ 13 1021.5
SOUTHWEST PASS   1100   54 52   30/  8/  8 1022.3
NEW CANAL        1100   52     140/  1/  6 1022.6
SHELL BEACH      1100   54 64   60/ 12/ 14 1022.3

OFFSHORE STATIONS

STATION/POSITION TIME  TEMP    WIND        PRES    WAVE
                       AIR SEA DIR/SP/G            HT/PER
                 (UTC) (F)     (DEG/KT/KT) (MB)    (FT/S)
64 S DAUPHIN ISL 1150   58 71   10/ 14/ 17 1022.6    3/ 5

$$




USA.gov is the U.S. government's official web portal to all federal, state and local government web resources and services.